Flag for Germany Weather past 2 weeks in Wittenberg, Saxony-Anhalt, Germany

Now
75 °F

Partly sunny.


Feels Like: 76 °F
Forecast: 66 / 85 °F
Wind: 7 mph from Northeast

Location: Holzdorf

Current Time: Jul 28, 2014 at 12:24:56 PM

Latest Report: Jul 28, 2014 at 11:20 AM


Visibility: N/A

Pressure: 29.92 "Hg

Humidity: 78%

Dew point: 68 °F

Location of WittenbergLocation

Historic Weather in Wittenberg — Graph

°F

Wittenberg temperature yesterday

Maximum temperature yesterday: 88 °F (at 5:20 PM)
Minimum temperature yesterday: 61 °F (at 5:20 AM)
Average temperature yesterday: 71 °F

Past Weeks' High & Low Weather Summary

 TemperatureHumidityPressure
High95 °F (Jul 20, 2:20 PM)100% (Jul 14, 3:20 AM)30.18 "Hg (Jul 14, 3:20 AM)
Low54 °F (Jul 18, 4:20 AM)21% (Jul 20, 3:20 PM)29.74 "Hg (Jul 13, 2:20 PM)
Average71 °F68%29.97 "Hg
* Reported Jul 13 10:20 AM — Jul 28 10:20 AM, Wittenberg, Weather by CustomWeather, © 2014

Note: Actual official high and low records may vary slightly from our data, if they occured in-between our weather recording intervals... More about our weather records

Advertising

Wittenberg weather history for previous 24 hours

 ConditionsComfort  
Time TempWeatherWind HumidityBarometerVisibility
10:20 AM
Jul 28
73 °FBroken clouds.5 mph78%29.92 "HgN/A
9:20 AM72 °FBroken clouds.6 mph83%29.92 "HgN/A
8:20 AM70 °FBroken clouds.6 mph88%29.92 "Hg6 mi
7:20 AM68 °FBroken clouds.2 mph88%29.92 "Hg5 mi
6:20 AM64 °FFog.3 mph100%29.92 "Hg3 mi
5:20 AM64 °FFog.5 mph100%29.92 "Hg2 mi
4:20 AM64 °FFog.3 mph100%29.92 "Hg2 mi
3:20 AM64 °FFog.5 mph100%29.92 "Hg2 mi
2:20 AM64 °FFog.6 mph100%29.92 "Hg2 mi
1:20 AM66 °FFog.2 mph94%29.95 "Hg2 mi
12:20 AM66 °FLight rain. Mostly cloudy.6 mph100%29.95 "Hg4 mi
11:20 PM
Jul 27
66 °FLight rain. Mostly cloudy.3 mph100%29.95 "Hg4 mi
10:20 PM66 °FLight rain. Mostly cloudy.5 mph100%29.98 "Hg4 mi
9:20 PM66 °FMore clouds than sun.6 mph94%29.95 "HgN/A
8:20 PM66 °FThundershowers. More clouds than sun.7 mph94%29.92 "HgN/A
7:20 PM64 °FThunderstorms. Mostly cloudy.14 mph94%29.95 "Hg2 mi
7:01 PM66 °FThunderstorms. Partly sunny.14 mph100%29.92 "Hg2 mi
6:20 PM86 °FPartly sunny.7 mph40%29.89 "HgN/A
5:20 PM88 °FPartly sunny.2 mph35%29.89 "HgN/A
4:20 PM86 °FPartly sunny.3 mph40%29.89 "HgN/A
3:20 PM86 °FBroken clouds.5 mph43%29.89 "HgN/A
2:20 PM82 °FScattered clouds.3 mph48%29.92 "HgN/A
1:20 PM82 °FScattered clouds.3 mph48%29.92 "HgN/A
12:20 PM81 °FBroken clouds.2 mph54%29.95 "HgN/A
Weather by CustomWeather, © 2014

See weather overviewHow to use our weather pages